User: anonymous   Login
Location: Newark
(11.5710°N, 104.9241°E)
Time: 17:04:43
(UTC+00:00)
Language:

ISS - Orbit

View from above orbital plane
View from above orbital plane
View from above satellite
View from above satellite

Ground track
Ground track

The orbit data is extracted from the following two-line orbital elements,

1 25544U 98067A   21135.53013219  .00001883  00000-0  42313-4 0  9993
2 25544  51.6433 144.2517 0003146   4.4646 138.4741 15.49008985283534
Epoch (UTC): 15 May 2021 12:43:23
Eccentricity: 0.0003146
inclination: 51.6433°
perigee height: 417 km
apogee height: 422 km
right ascension of ascending node: 144.2517°
argument of perigee: 4.4646°
revolutions per day: 15.49008985
mean anomaly at epoch: 138.4741°
orbit number at epoch: 28353

The dashed part of the orbit path shows where the satellite is in the earth's shadow,  

DLR